{"data":{"norad_id":62607,"epoch":"2026-05-25T05:26:51.218880Z","epoch_age_seconds":48362,"freshness":"FRESH","line1":"1 62607U 25008W   26145.22698170  .00094804  00000+0  20101-2 0  9999","line2":"2 62607  42.9941 197.5151 0015975  56.4271 303.8110 15.43918572 77424","mean_motion":15.43918572,"eccentricity":0.0015975,"inclination_deg":42.9941,"raan_deg":197.5151,"arg_perigee_deg":56.4271,"mean_anomaly_deg":303.811,"bstar":0.0020101,"rev_number":7742,"period_min":93.269167565917,"perigee_km":423.67420944766,"apogee_km":445.44076833968,"semimajor_km":6812.6944888937,"source":"CELESTRAK","updated_at":"2026-05-25T13:38:19.737576Z"}}